Tracking 29892 objects as of 21-Nov-2024
HD Live streaming from Space Station
objects crossing your sky now

NOAA 16 DEB

Track NOAA 16 DEB now!
10-day predictions


NORAD ID: 41412
Int'l Code: 2000-055KR
Perigee: 811.9 km
Apogee: 848.8 km
Inclination: 98.7 °
Period: 101.4 minutes
Semi major axis: 7201 km
RCS: Unknown
Launch date: September 21, 2000
Source: United States (US)
Launch site: AIR FORCE WESTERN TEST RANGE (AFWTR)

Note: This is SATELLITE DEBRIS
Your satellite tracking list
Your tracking list is empty




NASA's NSSDC Master Catalog

Two Line Element Set (TLE):
1 41412U 00055KR  24319.84306376  .00008016  00000-0  37285-2 0  9990
2 41412  98.6560 340.0547 0025594 344.3077  15.7304 14.20624354449765
Source of the keplerian elements: AFSPC